Flag for Germany Weather past 2 weeks in Straubing, Bavaria, Germany

Now
56 °F

Passing clouds.


Feels Like: 56 °F
Forecast: 47 / 64 °F
Wind: 2 mph from Southwest

Location: Straubing

Current Time: Sep 4, 2015 at 11:34:57 PM

Latest Report: Sep 4, 2015 at 11:00 PM


Visibility: 14 mi

Pressure: 29.98 "Hg

Humidity: 87%

Dew point: 52 °F

Location of StraubingLocation

Historic Weather in Straubing — Graph

°F

Straubing temperature yesterday

Maximum temperature yesterday: 64 °F (at 5:00 PM)
Minimum temperature yesterday: 57 °F (at 2:00 AM)
Average temperature yesterday: 61 °F

Past Weeks' High & Low Weather Summary

 TemperatureHumidityPressure
High91 °F (Aug 30, 6:00 PM)100% (Aug 21, 6:00 AM)30.28 "Hg (Aug 21, 6:00 AM)
Low48 °F (Aug 23, 7:00 AM)32% (Sep 1, 4:00 PM)29.65 "Hg (Aug 24, 7:00 PM)
Average68 °F70%30.00 "Hg
* Reported Aug 20 10:00 PM — Sep 4 10:00 PM, Straubing, Weather by CustomWeather, © 2015

Note: Actual official high and low records may vary slightly from our data, if they occured in-between our weather recording intervals... More about our weather records

Advertising

Straubing weather history for previous 24 hours

 ConditionsComfort  
Time TempWeatherWind HumidityBarometerVisibility
10:00 PM
Fri, Sep 4
56 °FClear.1 mph88%29.97 "Hg13 mi
9:00 PM58 °FPassing clouds.2 mph85%29.96 "Hg17 mi
8:00 PM61 °FPassing clouds.2 mph76%29.94 "Hg25 mi
7:00 PM64 °FScattered clouds.2 mph64%29.94 "Hg25 mi
6:00 PM66 °FOvercast.1 mph56%29.93 "Hg34 mi
5:00 PM67 °FPassing clouds.2 mph48%29.94 "Hg31 mi
4:00 PM67 °FPassing clouds.1 mph53%29.96 "Hg31 mi
3:00 PM66 °FPartly sunny.1 mph54%29.99 "Hg37 mi
2:00 PM64 °FOvercast.1 mph57%30.01 "Hg19 mi
1:00 PM63 °FOvercast.2 mph60%30.02 "Hg22 mi
12:00 PM62 °FPartly sunny.2 mph63%30.03 "Hg22 mi
11:00 AM61 °FPartly sunny.1 mph65%30.03 "Hg17 mi
10:00 AM59 °FCool.1 mph79%30.02 "Hg10 mi
5:00 AM58 °FDrizzle. Overcast.2 mph95%29.98 "Hg2 mi
4:00 AM58 °FFog.1 mph96%29.98 "Hg2 mi
3:00 AM58 °FFog.1 mph95%29.99 "Hg3 mi
2:00 AM58 °FFog.2 mph97%29.98 "Hg2 mi
1:00 AM58 °FFog.2 mph96%29.98 "Hg2 mi
11:00 PM
Thu, Sep 3
58 °FFog.2 mph97%29.98 "Hg4 mi
Weather by CustomWeather, © 2015

See weather overviewHow to use our weather pages